[[{"header":{"parameterUnit":"m.s-1","parameterCategory":1,"la1":30.2991,"la2":30.254,"lo1":-89.0895,"lo2":-89.0444,"dy":0.0017,"dx":0.0017,"nx":28,"ny":28,"refTime":"2023-09-20T21:00:00:Z","depth":0,"parameterNumber":2,"parameterNumberName":"U-component_of_WINDS"},"data":[0,0,0,0,0,0,0,0,0,0,0,0,0,0,0,0,0,0,0,0,0,0,0,0,0,0,0,0,0,0,0,0,0,0,0,0,0,0,0,0,0,0,0,0,0,0,0,0,0,0,0,0,0,0,0,0,0,0,-6.7047,-6.7048,0,-6.7213,-6.7215,-6.7217,-6.7125,-6.712,-6.7115,-6.7111,-6.7283,-6.7292,-6.73,0,0,0,0,0,0,0,0,0,0,0,0,0,-6.665,-6.6657,-6.7046,-6.7049,-6.7051,-6.7213,-6.7215,-6.7217,-6.7125,-6.712,-6.7114,-6.7109,-6.728,-6.729,-6.7301,0,0,0,0,0,0,0,0,0,0,0,0,0,-6.682,-6.666,-6.7046,-6.7024,-6.7024,-6.7212,-6.7215,-6.7218,-6.7127,-6.712,-6.7113,-6.7106,-6.7277,-6.7289,-6.7303,-6.7522,0,0,-6.7343,-6.7349,0,0,0,0,0,0,0,0,-6.681,-6.6834,-6.7025,-6.7026,-6.7026,-6.7141,-6.7138,-6.732,-6.7128,-6.7088,-6.7111,-6.7103,-6.7241,-6.7257,-6.7304,-6.7531,-6.7538,-6.7344,-6.7352,-6.7358,-6.7362,0,0,0,0,0,0,0,-6.6799,-6.6827,-6.7112,-6.7028,-6.7029,-6.7006,-6.7023,-6.7172,-6.7201,-6.7091,-6.7084,-6.7105,-6.724,-6.7291,-6.7307,-6.754,-6.7344,-6.7356,-6.7364,-6.7369,-6.7955,-6.7962,0,0,0,0,0,0,-6.6788,-6.6818,-6.7107,-6.7117,-6.6899,-6.7019,-6.7038,-6.7111,-6.7199,-6.7206,-6.7111,-6.71,-6.7272,-6.7291,-6.7313,-6.7574,-6.7358,-6.737,-6.7378,-6.7947,-6.7956,-6.7965,0,0,0,0,0,0,-6.678,-6.6815,-6.71,-6.6966,-6.7001,-6.7033,-6.7117,-6.7118,-6.7168,-6.7215,-6.7219,-6.7157,-6.7267,-6.7294,-6.747,-6.7578,-6.7376,-6.7389,-6.7938,-6.795,-6.7961,-6.8099,0,0,0,0,0,0,-6.6769,-6.6812,-6.6896,-6.6968,-6.7008,-6.7256,-6.7123,-6.7126,-6.7192,-6.7179,-6.7259,-6.7266,-6.7264,-6.7451,-6.7484,-6.7593,-6.7399,-6.7929,-6.7944,-6.7957,-6.8085,-6.8114,-6.8138,0,0,0,0,0,-6.6755,-6.6929,-6.69,-6.6936,-6.7113,-6.7262,-6.7284,-6.7278,-6.7201,-6.7285,-6.7314,-6.7263,-6.7562,-6.747,-6.7506,-6.7621,-6.7922,-6.7939,-6.7956,-6.8073,-6.8108,-6.8138,0,0,0,0,0,0,-6.6868,-6.6938,-6.6907,-6.711,-6.7181,-6.7246,-6.7351,-6.7316,-6.741,-6.7394,-6.7383,-6.7402,-6.7585,-6.7621,-6.7517,-6.7838,-6.773,-6.7755,-6.7807,-6.784,-6.7867,-6.7853,-6.741,0,0,0,0,0,-6.6917,-6.7031,-6.7086,-6.726,-6.7297,-6.7319,-6.7383,-6.7372,-6.7445,-6.7475,-6.7517,-6.759,-6.77,-6.7773,-6.7877,-6.8091,-6.8106,-6.8188,-6.8215,-6.8236,-6.8257,-6.8371,-6.8407,-6.8021,-6.8021,-6.802,0,0,-6.7018,-6.707,-6.7143,-6.7284,-6.7337,-6.7456,-6.7344,-6.7475,-6.7563,-6.7495,-6.7662,-6.7697,-6.7778,-6.7974,-6.8062,-6.801,-6.8368,-6.8258,-6.8275,-6.8284,-6.8392,-6.8429,-6.8461,-6.8032,-6.803,-6.8028,0,0,-6.7262,-6.7314,-6.7463,-6.7519,-6.7602,-6.7615,-6.7651,-6.7723,-6.7743,-6.7912,-6.7863,-6.7968,-6.8158,-6.8217,-6.8272,-6.8541,-6.8497,-6.8576,-6.8714,-6.8825,-6.8856,-6.8882,-6.8975,-6.9009,-6.8597,-6.8597,-6.8598,0,-6.7377,-6.7553,-6.7544,-6.7679,-6.7741,-6.7686,-6.7836,-6.7891,-6.8004,-6.8049,-6.7989,-6.8226,-6.8277,-6.8484,-6.855,-6.8597,-6.8637,-6.8564,-6.8852,-6.8879,-6.8904,-6.8992,-6.9028,-6.8606,-6.8605,-6.8604,-6.8603,0,-6.7689,-6.7813,-6.7924,-6.8033,-6.8109,-6.8251,-6.8263,-6.8341,-6.8325,-6.8345,-6.8517,-6.8577,-6.8691,-6.8741,-6.8726,-6.8947,-6.8911,-6.8853,-6.8743,-6.8949,-6.9032,-6.9066,-6.8618,-6.8615,-6.8613,-6.8611,0,0,-6.8006,-6.811,-6.815,-6.8198,-6.8286,-6.8381,-6.8521,-6.8633,-6.8699,-6.878,-6.8895,-6.9059,-6.9004,-6.9067,-6.9059,-6.9157,-6.9363,-6.9086,-6.9088,-6.9133,-6.9608,-6.9648,-6.9688,-6.9336,-6.9343,-6.9348,-6.96,0,-6.8253,-6.8496,-6.8493,-6.8718,-6.883,-6.8781,-6.8902,-6.8969,-6.8993,-6.9092,-6.9119,-6.9233,-6.9155,-6.9192,-6.9287,-6.9318,-6.9458,-6.93,-6.9442,-6.9447,-6.9419,-6.9732,-6.9776,-7.001,-6.9632,-6.9638,-6.9642,0,-6.8573,-6.8663,-6.8899,-6.8969,-6.9017,-6.9126,-6.9227,-6.9324,-6.94,-6.941,-6.9481,-6.9457,-6.9599,-6.9489,-6.9684,-6.9577,-6.9636,-6.966,-6.9669,-6.9679,-6.9554,-6.9747,-7.0085,-7.0119,-6.9694,-6.9689,-6.9686,0,-6.8776,-6.8957,-6.9121,-6.9164,-6.9252,-6.9329,-6.9369,-6.9438,-6.9505,-6.9595,-6.9638,-6.9744,-6.9801,-6.9884,-6.989,-6.981,-7.0086,-6.9977,-7.0097,-7.0097,-7.0154,-7.015,-7.0503,-7.0199,-7.0198,-7.0198,-7.0197,0,-6.905,-6.9195,-6.9213,-6.9313,-6.9475,-6.9471,-6.9631,-6.9665,-6.9727,-6.9833,-6.9798,-6.9898,-6.9902,-7.0005,-7.0012,-7.0171,-7.0198,-7.0209,-7.0209,-7.021,-7.0209,-7.0246,-7.0228,-7.0207,-7.0205,-7.0203,-7.0201,0,-6.9302,-6.932,-6.9495,-6.9563,-6.9584,-6.97,-6.9759,-6.9855,-6.9876,-7.001,-7.0042,-7.0075,-7.0195,-7.021,-7.0351,-7.0355,-7.0545,-7.053,-7.0519,-7.0515,-7.0633,-7.0621,-7.102,-7.1071,-7.0737,-7.074,-7.0743,0,-6.9473,-6.9584,-6.9664,-6.9732,-6.9777,-6.9888,-6.9956,-6.9957,-7.003,-7.0124,-7.0209,-7.0325,-7.0417,-7.0611,-7.0648,-7.0755,-7.0739,-7.0872,-7.0755,-7.0753,-7.0737,-7.0729,-7.0739,-7.0893,-7.0897,-7.09,-7.0902,0,-6.9774,-6.9778,-6.9877,-6.998,-7.0062,-7.0144,-7.022,-7.0279,-7.029,-7.0373,-7.0495,-7.0567,-7.071,-7.0825,-7.0931,-7.0973,-7.094,-7.0939,-7.0972,-7.0973,-7.0961,-7.0966,-7.0577,-7.0929,-7.0926,-7.0924,-7.0923,-7.0922,-6.9989,-7.0084,-7.0155,-7.0267,-7.0325,-7.0398,-7.049,-7.0523,-7.0624,-7.074,-7.0736,-7.0869,-7.0943,-7.1081,-7.1131,-7.1236,-7.1192,-7.124,-7.1252,-7.1263,-7.1273,-7.0948,-7.1256,-7.1255,-7.1254,-7.1253,-7.1253,0,-7.0285,-7.0329,-7.0432,-7.0539,-7.0628,-7.059,-7.0673,-7.0749,-7.0866,-7.0938,-7.103,-7.1169,-7.1281,-7.1328,-7.1438,-7.1513,-7.15,-7.1541,-7.1533,-7.1543,-7.1307,-7.1266,-7.1549,-7.1549,-7.1549,-7.1549,-7.1549,-7.1549,-7.0449,-7.0607,-7.062,-7.0807,-7.085,-7.098,-7.103,-7.1097,-7.1153,-7.1311,-7.1403,-7.1433,-7.1494,-7.1609,-7.171,-7.1721,-7.1761,-7.1809,-7.1813,-7.159,-7.156,-7.1531,-7.1492,-7.1819,-7.1819,-7.2039,-7.2041,-7.2043]},{"header":{"parameterUnit":"m.s-1","parameterCategory":1,"la1":30.2991,"la2":30.254,"lo1":-89.0895,"lo2":-89.0444,"dy":0.0017,"dx":0.0017,"nx":28,"ny":28,"refTime":"2023-09-20T21:00:00:Z","depth":0,"parameterNumber":3,"parameterNumberName":"V-component_of_WINDS"},"data":[0,0,0,0,0,0,0,0,0,0,0,0,0,0,0,0,0,0,0,0,0,0,0,0,0,0,0,0,0,0,0,0,0,0,0,0,0,0,0,0,0,0,0,0,0,0,0,0,0,0,0,0,0,0,0,0,0,0,0.7935,0.7935,0,0.7919,0.7919,0.7918,0.795,0.7951,0.7952,0.7953,0.7929,0.7928,0.7926,0,0,0,0,0,0,0,0,0,0,0,0,0,0.7989,0.7988,0.7935,0.7935,0.7935,0.7919,0.7919,0.7918,0.795,0.7951,0.7952,0.7954,0.793,0.7928,0.7926,0,0,0,0,0,0,0,0,0,0,0,0,0,0.7968,0.7988,0.7935,0.7949,0.795,0.7919,0.7919,0.7918,0.7949,0.7951,0.7953,0.7954,0.793,0.7928,0.7926,0.7879,0,0,0.7918,0.7917,0,0,0,0,0,0,0,0,0.7969,0.7966,0.7947,0.7948,0.7949,0.7938,0.7929,0.7905,0.7949,0.7949,0.7953,0.7955,0.793,0.7928,0.7921,0.7877,0.7876,0.7918,0.7916,0.7915,0.7915,0,0,0,0,0,0,0,0.7971,0.7967,0.7929,0.7947,0.7948,0.7954,0.7953,0.7924,0.7931,0.7949,0.7952,0.795,0.7931,0.7924,0.7921,0.7876,0.7918,0.7916,0.7914,0.7913,0.7793,0.7792,0,0,0,0,0,0,0.7971,0.7968,0.7929,0.7928,0.7964,0.7952,0.7951,0.794,0.7931,0.7932,0.7948,0.7951,0.7927,0.7924,0.792,0.7865,0.7915,0.7913,0.7912,0.7795,0.7793,0.7791,0,0,0,0,0,0,0.7973,0.7968,0.793,0.7949,0.7945,0.7949,0.7937,0.7939,0.7931,0.7931,0.7931,0.794,0.7928,0.7924,0.7889,0.7864,0.7912,0.791,0.7797,0.7795,0.7792,0.7753,0,0,0,0,0,0,0.7974,0.7968,0.7951,0.7948,0.7943,0.7901,0.7936,0.7937,0.7928,0.7931,0.7923,0.7923,0.7929,0.7893,0.7887,0.7862,0.7908,0.7799,0.7796,0.7793,0.7757,0.7749,0.7743,0,0,0,0,0,0.7976,0.7939,0.795,0.7945,0.7923,0.7899,0.7896,0.7906,0.7926,0.7908,0.7908,0.7923,0.7869,0.7889,0.7883,0.7856,0.7801,0.7797,0.7793,0.7759,0.7751,0.7744,0,0,0,0,0,0,0.7936,0.7939,0.7951,0.7913,0.7906,0.7905,0.7882,0.7896,0.7882,0.7885,0.7897,0.7894,0.7857,0.7854,0.7877,0.7811,0.7838,0.7832,0.7814,0.7806,0.78,0.78,0.7906,0,0,0,0,0,0.7923,0.7906,0.7909,0.7874,0.7871,0.7877,0.7867,0.7876,0.7868,0.7864,0.7862,0.7852,0.7833,0.7819,0.7802,0.7757,0.7755,0.7736,0.7729,0.7724,0.7718,0.7695,0.7686,0.7778,0.7779,0.7779,0,0,0.7896,0.7895,0.7883,0.7867,0.7862,0.7842,0.7874,0.7851,0.7836,0.786,0.7828,0.7826,0.7816,0.7776,0.7759,0.7772,0.7693,0.7719,0.7715,0.7712,0.769,0.7681,0.7673,0.7776,0.7776,0.7777,0,0,0.7835,0.7834,0.7805,0.7801,0.7795,0.78,0.7793,0.7791,0.7791,0.776,0.7778,0.7759,0.7726,0.7718,0.7709,0.7648,0.7661,0.7642,0.7607,0.7583,0.7576,0.757,0.7547,0.7539,0.7637,0.7637,0.7637,0,0.7801,0.7773,0.7788,0.7765,0.7757,0.7781,0.7752,0.7746,0.7733,0.7727,0.7743,0.7702,0.7697,0.7656,0.7642,0.7634,0.7626,0.7642,0.7576,0.757,0.7564,0.7543,0.7534,0.7635,0.7635,0.7635,0.7635,0,0.7731,0.7712,0.7689,0.7679,0.7669,0.7642,0.7652,0.764,0.765,0.7653,0.7621,0.7616,0.7598,0.7589,0.7598,0.7549,0.7558,0.7575,0.7602,0.7553,0.7533,0.7525,0.7631,0.7632,0.7633,0.7634,0,0,0.7642,0.7643,0.7635,0.7631,0.7627,0.7612,0.7586,0.7571,0.756,0.7551,0.7529,0.7502,0.7518,0.7509,0.7517,0.7496,0.7448,0.7516,0.7516,0.7502,0.7394,0.738,0.737,0.7458,0.7456,0.7455,0.7394,0,0.7581,0.754,0.7554,0.7511,0.7493,0.7517,0.7495,0.7489,0.7492,0.7476,0.7478,0.7458,0.7482,0.7476,0.7458,0.7458,0.7426,0.7463,0.7435,0.7434,0.7436,0.736,0.7345,0.7288,0.7387,0.7385,0.7384,0,0.7504,0.7496,0.7452,0.7452,0.7445,0.7425,0.7413,0.7398,0.7392,0.7396,0.7386,0.7399,0.7373,0.7402,0.7365,0.739,0.738,0.7379,0.7377,0.7373,0.7405,0.7352,0.727,0.726,0.7372,0.7373,0.7374,0,0.7443,0.742,0.7391,0.7387,0.7387,0.7373,0.7371,0.7368,0.7358,0.7347,0.7341,0.7326,0.7317,0.7305,0.7313,0.7334,0.7275,0.7305,0.7275,0.7275,0.726,0.726,0.7173,0.7256,0.7256,0.7256,0.7257,0,0.7373,0.7344,0.7363,0.7345,0.7314,0.7331,0.7299,0.73,0.7297,0.7279,0.7298,0.728,0.7293,0.7275,0.7282,0.725,0.7246,0.7247,0.7248,0.7244,0.7244,0.7236,0.7239,0.7254,0.7255,0.7255,0.7255,0,0.7298,0.7309,0.7279,0.7283,0.7284,0.726,0.7263,0.7245,0.7251,0.7227,0.7223,0.723,0.7211,0.7219,0.7197,0.7202,0.7161,0.7168,0.7163,0.7165,0.7134,0.7137,0.7037,0.7025,0.7117,0.7117,0.7116,0,0.7251,0.7231,0.7233,0.7224,0.7222,0.7206,0.7197,0.7213,0.7203,0.7196,0.7179,0.7162,0.7149,0.7117,0.7119,0.7103,0.7109,0.7076,0.7106,0.7103,0.7107,0.7108,0.7105,0.7068,0.7067,0.7067,0.7066,0,0.7167,0.7175,0.7163,0.7153,0.7143,0.7135,0.7129,0.7119,0.7135,0.7122,0.7104,0.7094,0.7074,0.7057,0.7043,0.704,0.7054,0.7057,0.7049,0.7043,0.7041,0.7041,0.7145,0.7058,0.7059,0.706,0.706,0.706,0.7104,0.7087,0.7087,0.7073,0.7071,0.7065,0.705,0.7054,0.704,0.7027,0.7037,0.7015,0.7011,0.6994,0.699,0.6972,0.6985,0.6973,0.697,0.6967,0.6963,0.7046,0.6969,0.697,0.697,0.697,0.697,0,0.7021,0.7023,0.701,0.7002,0.6991,0.701,0.7004,0.6993,0.6975,0.697,0.6958,0.6937,0.6921,0.6923,0.6908,0.6893,0.69,0.6889,0.6889,0.6888,0.6952,0.696,0.6884,0.6884,0.6884,0.6884,0.6884,0.6884,0.6976,0.6948,0.6956,0.6927,0.6929,0.691,0.6905,0.69,0.6897,0.6873,0.6861,0.6864,0.6862,0.6847,0.6832,0.6833,0.6826,0.6812,0.6815,0.6875,0.6883,0.6891,0.6899,0.6811,0.6811,0.6752,0.6752,0.6751]}]]